Tracking 23726 objects as of 25-Sep-2021
HD Live streaming from Space Station
objects crossing your sky now

STARLINK-1723

Track STARLINK-1723 now!
10-day predictions
STARLINK-1723 is classified as:


NORAD ID: 46333
Int'l Code: 2020-062J
Perigee: 552.9 km
Apogee: 555.8 km
Inclination: 53.1 °
Period: 95.6 minutes
Semi major axis: 6925 km
RCS: Unknown
Launch date: September 3, 2020
Source: United States (US)
Launch site: AIR FORCE EASTERN TEST RANGE (AFETR)
aabbcc
Your satellite tracking list
Your tracking list is empty




NASA's NSSDC Master Catalog

Two Line Element Set (TLE):
1 46333U 20062J   21268.30728638  .00001241  00000-0  10219-3 0  9999
2 46333  53.0540 117.7436 0002055  82.9828 277.1394 15.06399798 59358
Source of the keplerian elements: AFSPC